Time,TemperatureF,DewpointF,PressureIn,WindDirection,WindDirectionDegrees,WindSpeedMPH,WindSpeedGustMPH,Humidity,HourlyPrecipIn,Conditions,Clouds,dailyrainin,SoftwareType,DateUTC
2013-08-07 00:00:00,57.9,54.7,29.91,SSW,199,0.0,0.0,89,0.00,,,0.00,Wunderground v.1.12,2013-08-07 06:00:00,
2013-08-07 00:05:00,57.8,54.6,29.91,SSW,199,0.0,0.0,89,0.00,,,0.00,Wunderground v.1.12,2013-08-07 06:05:00,
2013-08-07 00:10:00,57.5,54.3,29.91,SSW,197,0.0,0.0,89,0.00,,,0.00,Wunderground v.1.12,2013-08-07 06:10:00,
2013-08-07 00:15:00,57.3,54.4,29.91,SSW,197,0.0,0.0,90,0.00,,,0.00,Wunderground v.1.12,2013-08-07 06:15:00,
2013-08-07 00:20:00,57.2,54.3,29.91,SSW,193,0.0,0.0,90,0.00,,,0.00,Wunderground v.1.12,2013-08-07 06:20:00,
2013-08-07 00:30:00,56.9,54.0,29.91,SSW,195,0.0,0.0,90,0.00,,,0.00,Wunderground v.1.12,2013-08-07 06:30:00,
2013-08-07 00:35:00,56.7,54.1,29.91,SSW,192,0.0,0.0,91,0.00,,,0.00,Wunderground v.1.12,2013-08-07 06:35:00,
2013-08-07 00:40:00,56.6,54.0,29.91,SSW,195,0.0,0.0,91,0.00,,,0.00,Wunderground v.1.12,2013-08-07 06:40:00,
2013-08-07 00:45:00,56.4,53.8,29.91,South,188,0.0,0.0,91,0.00,,,0.00,Wunderground v.1.12,2013-08-07 06:45:00,
2013-08-07 00:50:00,56.3,53.7,29.91,SSW,194,0.0,0.0,91,0.00,,,0.00,Wunderground v.1.12,2013-08-07 06:50:00,
2013-08-07 01:00:00,56.0,53.1,29.91,South,189,0.0,0.0,90,0.00,,,0.00,Wunderground v.1.12,2013-08-07 07:00:00,
2013-08-07 01:05:00,56.0,53.4,29.92,South,188,0.0,0.0,91,0.00,,,0.00,Wunderground v.1.12,2013-08-07 07:05:00,
2013-08-07 01:10:00,56.0,53.4,29.91,South,187,0.0,0.0,91,0.00,,,0.00,Wunderground v.1.12,2013-08-07 07:10:00,
2013-08-07 01:15:00,55.8,53.2,29.92,South,190,0.0,0.0,91,0.00,,,0.00,Wunderground v.1.12,2013-08-07 07:15:00,
2013-08-07 01:20:00,55.7,53.1,29.92,South,186,0.0,0.0,91,0.00,,,0.00,Wunderground v.1.12,2013-08-07 07:20:00,
2013-08-07 01:25:00,55.5,53.2,29.92,South,190,0.0,0.0,92,0.00,,,0.00,Wunderground v.1.12,2013-08-07 07:25:00,
2013-08-07 01:35:00,55.1,52.8,29.92,South,189,0.0,0.0,92,0.00,,,0.00,Wunderground v.1.12,2013-08-07 07:35:00,
2013-08-07 01:40:00,55.1,52.8,29.92,South,187,0.0,0.0,92,0.00,,,0.00,Wunderground v.1.12,2013-08-07 07:40:00,
2013-08-07 01:45:00,55.0,53.0,29.92,SSW,192,0.0,0.0,93,0.00,,,0.00,Wunderground v.1.12,2013-08-07 07:45:00,
2013-08-07 01:50:00,54.9,52.6,29.92,South,190,0.0,0.0,92,0.00,,,0.00,Wunderground v.1.12,2013-08-07 07:50:00,
2013-08-07 01:55:00,54.8,52.8,29.92,South,189,0.0,0.0,93,0.00,,,0.00,Wunderground v.1.12,2013-08-07 07:55:00,
2013-08-07 02:00:00,54.8,52.8,29.92,SSW,193,0.0,0.0,93,0.00,,,0.00,Wunderground v.1.12,2013-08-07 08:00:00,
2013-08-07 02:10:00,54.8,52.8,29.92,South,186,0.0,0.0,93,0.00,,,0.00,Wunderground v.1.12,2013-08-07 08:10:00,
2013-08-07 02:15:00,54.8,52.8,29.92,South,191,0.0,0.0,93,0.00,,,0.00,Wunderground v.1.12,2013-08-07 08:15:00,
2013-08-07 02:20:00,54.9,52.9,29.92,South,188,0.0,0.0,93,0.00,,,0.00,Wunderground v.1.12,2013-08-07 08:20:00,
2013-08-07 02:25:00,54.8,52.8,29.92,South,186,0.0,0.0,93,0.00,,,0.00,Wunderground v.1.12,2013-08-07 08:25:00,
2013-08-07 02:30:00,54.7,53.0,29.92,South,187,0.0,0.0,94,0.00,,,0.00,Wunderground v.1.12,2013-08-07 08:30:00,
2013-08-07 02:40:00,54.8,52.8,29.92,South,190,0.0,0.0,93,0.00,,,0.00,Wunderground v.1.12,2013-08-07 08:40:00,
2013-08-07 02:45:00,54.7,52.7,29.92,South,189,0.0,0.0,93,0.00,,,0.00,Wunderground v.1.12,2013-08-07 08:45:00,
2013-08-07 02:50:00,54.6,52.9,29.92,South,191,0.0,0.0,94,0.00,,,0.00,Wunderground v.1.12,2013-08-07 08:50:00,
2013-08-07 02:55:00,54.6,52.9,29.92,South,186,0.0,0.0,94,0.00,,,0.00,Wunderground v.1.12,2013-08-07 08:55:00,
2013-08-07 03:00:00,54.5,53.1,29.91,South,184,0.0,0.0,95,0.00,,,0.00,Wunderground v.1.12,2013-08-07 09:00:00,
2013-08-07 03:10:00,54.5,52.8,29.91,South,185,0.0,0.0,94,0.00,,,0.00,Wunderground v.1.12,2013-08-07 09:10:00,
2013-08-07 03:15:00,54.4,52.7,29.92,South,186,0.0,0.0,94,0.00,,,0.00,Wunderground v.1.12,2013-08-07 09:15:00,
2013-08-07 03:20:00,54.4,52.7,29.93,WSW,241,0.0,0.0,94,0.00,,,0.00,Wunderground v.1.12,2013-08-07 09:20:00,
2013-08-07 03:30:00,54.4,53.0,29.94,N/A,-32768,0.0,0.0,95,0.00,,,0.00,Wunderground v.1.12,2013-08-07 09:30:00,
2013-08-07 03:35:00,54.5,53.1,29.94,N/A,-32768,0.0,0.0,95,0.00,,,0.00,Wunderground v.1.12,2013-08-07 09:35:00,
2013-08-07 03:40:00,54.8,53.4,29.94,South,189,0.0,0.0,95,0.00,,,0.00,Wunderground v.1.12,2013-08-07 09:40:00,
2013-08-07 03:50:00,55.1,53.4,29.94,South,190,0.0,0.0,94,0.00,,,0.00,Wunderground v.1.12,2013-08-07 09:50:00,
2013-08-07 03:55:00,55.2,53.5,29.94,South,187,0.0,0.0,94,0.00,,,0.00,Wunderground v.1.12,2013-08-07 09:55:00,
2013-08-07 04:00:00,55.3,53.3,29.94,South,190,0.0,0.0,93,0.00,,,0.00,Wunderground v.1.12,2013-08-07 10:00:00,
2013-08-07 04:05:00,55.3,53.3,29.94,South,191,0.0,0.0,93,0.00,,,0.00,Wunderground v.1.12,2013-08-07 10:05:00,
2013-08-07 04:10:00,55.2,53.2,29.94,South,190,0.0,0.0,93,0.00,,,0.00,Wunderground v.1.12,2013-08-07 10:10:00,
2013-08-07 04:15:00,55.1,53.4,29.94,South,187,0.0,0.0,94,0.00,,,0.00,Wunderground v.1.12,2013-08-07 10:15:00,
2013-08-07 04:25:00,55.0,53.3,29.94,South,189,0.0,0.0,94,0.00,,,0.00,Wunderground v.1.12,2013-08-07 10:25:00,
2013-08-07 04:30:00,54.8,53.1,29.94,SSW,199,0.0,0.0,94,0.00,,,0.00,Wunderground v.1.12,2013-08-07 10:30:00,
2013-08-07 04:35:00,54.6,52.9,29.95,SSW,205,0.0,0.0,94,0.00,,,0.00,Wunderground v.1.12,2013-08-07 10:35:00,
2013-08-07 04:40:00,54.5,53.1,29.95,SSW,195,0.0,0.0,95,0.00,,,0.00,Wunderground v.1.12,2013-08-07 10:40:00,
2013-08-07 04:45:00,54.4,53.0,29.95,SSW,195,0.0,0.0,95,0.00,,,0.00,Wunderground v.1.12,2013-08-07 10:45:00,
2013-08-07 04:50:00,54.4,53.0,29.95,SSW,197,0.0,0.0,95,0.00,,,0.00,Wunderground v.1.12,2013-08-07 10:50:00,
2013-08-07 05:00:00,54.2,52.8,29.95,SSW,201,0.0,0.0,95,0.00,,,0.00,Wunderground v.1.12,2013-08-07 11:00:00,
2013-08-07 05:05:00,54.1,52.7,29.95,SSW,204,0.0,0.0,95,0.00,,,0.00,Wunderground v.1.12,2013-08-07 11:05:00,
2013-08-07 05:10:00,54.0,52.6,29.95,SSW,198,0.0,0.0,95,0.00,,,0.00,Wunderground v.1.12,2013-08-07 11:10:00,
2013-08-07 05:15:00,53.7,52.3,29.96,SSW,199,0.0,0.0,95,0.00,,,0.00,Wunderground v.1.12,2013-08-07 11:15:00,
2013-08-07 05:20:00,53.6,52.5,29.95,SSW,203,0.0,0.0,96,0.00,,,0.00,Wunderground v.1.12,2013-08-07 11:20:00,
2013-08-07 05:25:00,53.5,52.4,29.96,SSW,199,0.0,0.0,96,0.00,,,0.00,Wunderground v.1.12,2013-08-07 11:25:00,
2013-08-07 05:35:00,53.3,52.2,29.95,SSW,196,0.0,0.0,96,0.00,,,0.00,Wunderground v.1.12,2013-08-07 11:35:00,
2013-08-07 05:40:00,53.2,52.1,29.95,SSW,197,0.0,0.0,96,0.00,,,0.00,Wunderground v.1.12,2013-08-07 11:40:00,
2013-08-07 05:45:00,53.1,52.0,29.95,SSW,195,0.0,0.0,96,0.00,,,0.00,Wunderground v.1.12,2013-08-07 11:45:00,
2013-08-07 05:50:00,53.1,52.0,29.95,SSW,196,0.0,0.0,96,0.00,,,0.00,Wunderground v.1.12,2013-08-07 11:50:00,
2013-08-07 05:55:00,53.1,52.3,29.95,SSW,197,0.0,0.0,97,0.00,,,0.00,Wunderground v.1.12,2013-08-07 11:55:00,
2013-08-07 06:00:00,52.9,51.8,29.95,South,191,0.0,0.0,96,0.00,,,0.00,Wunderground v.1.12,2013-08-07 12:00:00,
2013-08-07 06:10:00,52.8,52.0,29.94,SSW,194,0.0,0.0,97,0.00,,,0.00,Wunderground v.1.12,2013-08-07 12:10:00,
2013-08-07 06:15:00,52.8,52.0,29.95,SSW,195,0.0,0.0,97,0.00,,,0.00,Wunderground v.1.12,2013-08-07 12:15:00,
2013-08-07 06:20:00,52.7,52.2,29.94,SSW,193,0.0,0.0,98,0.00,,,0.00,Wunderground v.1.12,2013-08-07 12:20:00,
2013-08-07 06:25:00,52.8,52.3,29.94,South,191,0.0,0.0,98,0.00,,,0.00,Wunderground v.1.12,2013-08-07 12:25:00,
2013-08-07 06:30:00,52.7,52.2,29.94,SSW,193,0.0,0.0,98,0.00,,,0.00,Wunderground v.1.12,2013-08-07 12:30:00,
2013-08-07 06:35:00,52.8,52.0,29.94,South,190,0.0,0.0,97,0.00,,,0.00,Wunderground v.1.12,2013-08-07 12:35:00,
2013-08-07 06:40:00,52.8,52.3,29.94,SSW,197,0.0,0.0,98,0.00,,,0.00,Wunderground v.1.12,2013-08-07 12:40:00,
2013-08-07 06:50:00,52.8,52.3,29.94,South,190,0.0,0.0,98,0.00,,,0.00,Wunderground v.1.12,2013-08-07 12:50:00,
2013-08-07 06:55:00,52.9,52.4,29.94,South,188,0.0,0.0,98,0.00,,,0.00,Wunderground v.1.12,2013-08-07 12:55:00,
2013-08-07 07:00:00,52.9,52.6,29.94,South,188,0.0,0.0,99,0.00,,,0.00,Wunderground v.1.12,2013-08-07 13:00:00,
2013-08-07 07:05:00,53.1,52.8,29.94,SSW,192,0.0,0.0,99,0.00,,,0.00,Wunderground v.1.12,2013-08-07 13:05:00,
2013-08-07 07:10:00,53.2,52.9,29.94,South,186,0.0,0.0,99,0.00,,,0.00,Wunderground v.1.12,2013-08-07 13:10:00,
2013-08-07 07:15:00,53.2,52.9,29.94,South,182,0.0,0.0,99,0.00,,,0.00,Wunderground v.1.12,2013-08-07 13:15:00,
2013-08-07 07:25:00,53.5,53.2,29.94,South,187,0.0,0.0,99,0.00,,,0.00,Wunderground v.1.12,2013-08-07 13:25:00,
2013-08-07 07:30:00,53.6,53.3,29.95,South,187,0.0,0.0,99,0.00,,,0.00,Wunderground v.1.12,2013-08-07 13:30:00,
2013-08-07 07:35:00,53.8,53.5,29.95,South,182,0.0,0.0,99,0.00,,,0.00,Wunderground v.1.12,2013-08-07 13:35:00,
2013-08-07 07:40:00,54.0,53.7,29.95,South,189,0.0,0.0,99,0.00,,,0.00,Wunderground v.1.12,2013-08-07 13:40:00,
2013-08-07 07:45:00,54.2,53.6,29.95,South,183,0.0,0.0,98,0.00,,,0.00,Wunderground v.1.12,2013-08-07 13:45:00,
2013-08-07 07:50:00,54.4,53.8,29.95,South,184,0.0,0.0,98,0.00,,,0.00,Wunderground v.1.12,2013-08-07 13:50:00,
2013-08-07 08:00:00,54.7,54.1,29.96,South,180,0.0,0.0,98,0.00,,,0.00,Wunderground v.1.12,2013-08-07 14:00:00,
2013-08-07 08:05:00,54.8,54.2,29.95,South,183,0.0,0.0,98,0.00,,,0.00,Wunderground v.1.12,2013-08-07 14:05:00,
2013-08-07 08:10:00,55.1,54.8,29.95,South,182,0.0,0.0,99,0.00,,,0.00,Wunderground v.1.12,2013-08-07 14:10:00,
2013-08-07 08:15:00,55.3,54.7,29.95,South,182,0.0,0.0,98,0.00,,,0.00,Wunderground v.1.12,2013-08-07 14:15:00,
2013-08-07 08:20:00,55.5,54.9,29.95,South,182,0.0,0.0,98,0.00,,,0.00,Wunderground v.1.12,2013-08-07 14:20:00,
2013-08-07 08:30:00,56.2,55.4,29.96,South,184,0.0,0.0,97,0.00,,,0.00,Wunderground v.1.12,2013-08-07 14:30:00,
2013-08-07 08:35:00,56.3,55.2,29.96,South,177,0.0,0.0,96,0.00,,,0.00,Wunderground v.1.12,2013-08-07 14:35:00,
2013-08-07 08:40:00,56.6,54.9,29.96,South,182,0.0,0.0,94,0.00,,,0.00,Wunderground v.1.12,2013-08-07 14:40:00,
2013-08-07 08:45:00,56.9,55.2,29.96,South,175,0.0,0.0,94,0.00,,,0.00,Wunderground v.1.12,2013-08-07 14:45:00,
2013-08-07 08:50:00,57.2,55.5,29.96,South,186,0.0,0.0,94,0.00,,,0.00,Wunderground v.1.12,2013-08-07 14:50:00,
2013-08-07 08:55:00,57.6,55.9,29.96,South,189,0.0,0.0,94,0.00,,,0.00,Wunderground v.1.12,2013-08-07 14:55:00,
2013-08-07 09:05:00,58.8,56.8,29.96,South,176,0.0,0.0,93,0.00,,,0.00,Wunderground v.1.12,2013-08-07 15:05:00,
2013-08-07 09:15:00,59.9,57.0,29.96,South,179,0.0,0.0,90,0.00,,,0.00,Wunderground v.1.12,2013-08-07 15:15:00,
2013-08-07 09:20:00,60.4,57.1,29.96,South,181,0.0,0.0,89,0.00,,,0.00,Wunderground v.1.12,2013-08-07 15:20:00,
2013-08-07 09:25:00,60.9,57.6,29.96,South,185,0.0,0.0,89,0.00,,,0.00,Wunderground v.1.12,2013-08-07 15:25:00,
2013-08-07 09:30:00,61.4,58.1,29.96,SSE,167,0.0,0.0,89,0.00,,,0.00,Wunderground v.1.12,2013-08-07 15:30:00,
2013-08-07 09:35:00,62.1,58.5,29.96,N/A,-32768,0.0,0.0,88,0.00,,,0.00,Wunderground v.1.12,2013-08-07 15:35:00,
2013-08-07 09:40:00,62.9,58.6,29.96,N/A,-32768,0.0,0.0,86,0.00,,,0.00,Wunderground v.1.12,2013-08-07 15:40:00,
2013-08-07 09:50:00,63.8,59.2,29.96,N/A,-32768,0.0,0.0,85,0.00,,,0.00,Wunderground v.1.12,2013-08-07 15:50:00,
2013-08-07 09:55:00,64.3,59.7,29.95,N/A,-32768,0.0,0.0,85,0.00,,,0.00,Wunderground v.1.12,2013-08-07 15:55:00,
2013-08-07 10:00:00,65.3,60.0,29.95,N/A,-32768,0.0,0.0,83,0.00,,,0.00,Wunderground v.1.12,2013-08-07 16:00:00,
2013-08-07 10:05:00,66.4,60.7,29.95,N/A,-32768,0.0,0.0,82,0.00,,,0.00,Wunderground v.1.12,2013-08-07 16:05:00,
2013-08-07 10:15:00,69.4,61.9,29.96,N/A,-32768,0.0,0.0,77,0.00,,,0.00,Wunderground v.1.12,2013-08-07 16:15:00,
2013-08-07 10:20:00,70.6,61.9,29.95,North,355,0.0,0.0,74,0.00,,,0.00,Wunderground v.1.12,2013-08-07 16:20:00,
2013-08-07 10:25:00,71.5,62.8,29.95,NNW,345,0.0,0.0,74,0.00,,,0.00,Wunderground v.1.12,2013-08-07 16:25:00,
2013-08-07 10:30:00,72.7,62.8,29.95,North,350,0.0,0.0,71,0.00,,,0.00,Wunderground v.1.12,2013-08-07 16:30:00,
2013-08-07 10:35:00,73.6,62.8,29.95,NNW,346,0.0,0.0,69,0.00,,,0.00,Wunderground v.1.12,2013-08-07 16:35:00,
2013-08-07 10:40:00,74.3,63.5,29.94,NW,316,0.0,0.0,69,0.00,,,0.00,Wunderground v.1.12,2013-08-07 16:40:00,
2013-08-07 10:50:00,75.6,63.4,29.94,WNW,302,0.0,0.0,66,0.00,,,0.00,Wunderground v.1.12,2013-08-07 16:50:00,
2013-08-07 10:55:00,76.2,63.6,29.94,NW,322,0.0,0.0,65,0.00,,,0.00,Wunderground v.1.12,2013-08-07 16:55:00,
2013-08-07 11:00:00,76.9,64.2,29.94,NW,313,0.0,0.0,65,0.00,,,0.00,Wunderground v.1.12,2013-08-07 17:00:00,
2013-08-07 11:05:00,77.6,64.9,29.94,NW,317,0.0,0.0,65,0.00,,,0.00,Wunderground v.1.12,2013-08-07 17:05:00,
2013-08-07 11:10:00,78.2,64.6,29.93,NW,320,0.0,0.0,63,0.00,,,0.00,Wunderground v.1.12,2013-08-07 17:10:00,
2013-08-07 11:15:00,78.8,64.7,29.94,NW,318,0.0,0.0,62,0.00,,,0.00,Wunderground v.1.12,2013-08-07 17:15:00,
2013-08-07 11:25:00,79.4,64.3,29.93,WNW,295,0.0,0.0,60,0.00,,,0.00,Wunderground v.1.12,2013-08-07 17:25:00,
2013-08-07 11:30:00,79.6,64.5,29.93,NW,312,0.0,0.0,60,0.00,,,0.00,Wunderground v.1.12,2013-08-07 17:30:00,
2013-08-07 11:35:00,80.1,64.5,29.93,WNW,297,0.0,0.0,59,0.00,,,0.00,Wunderground v.1.12,2013-08-07 17:35:00,
2013-08-07 11:40:00,80.2,64.1,29.93,NW,305,0.0,0.0,58,0.00,,,0.00,Wunderground v.1.12,2013-08-07 17:40:00,
2013-08-07 11:45:00,80.0,63.9,29.93,WNW,303,0.0,0.0,58,0.00,,,0.00,Wunderground v.1.12,2013-08-07 17:45:00,
2013-08-07 11:50:00,80.2,65.1,29.93,WNW,295,0.0,0.0,60,0.00,,,0.00,Wunderground v.1.12,2013-08-07 17:50:00,
2013-08-07 12:00:00,80.9,65.2,29.93,WNW,293,3.0,3.0,59,0.00,,,0.00,Wunderground v.1.12,2013-08-07 18:00:00,
2013-08-07 12:05:00,80.9,65.7,29.93,WNW,296,0.0,0.0,60,0.00,,,0.00,Wunderground v.1.12,2013-08-07 18:05:00,
2013-08-07 12:10:00,80.9,65.2,29.92,WNW,293,0.0,0.0,59,0.00,,,0.00,Wunderground v.1.12,2013-08-07 18:10:00,
2013-08-07 12:15:00,81.3,66.1,29.92,NW,309,0.0,0.0,60,0.00,,,0.00,Wunderground v.1.12,2013-08-07 18:15:00,
2013-08-07 12:20:00,81.7,66.5,29.92,NW,305,0.0,0.0,60,0.00,,,0.00,Wunderground v.1.12,2013-08-07 18:20:00,
2013-08-07 12:25:00,81.7,65.5,29.92,WNW,290,0.0,0.0,58,0.00,,,0.00,Wunderground v.1.12,2013-08-07 18:25:00,
2013-08-07 12:30:00,81.8,65.6,29.91,NW,315,0.0,0.0,58,0.00,,,0.00,Wunderground v.1.12,2013-08-07 18:30:00,
2013-08-07 12:40:00,82.2,66.0,29.92,NW,305,0.0,0.0,58,0.00,,,0.00,Wunderground v.1.12,2013-08-07 18:40:00,
2013-08-07 12:45:00,82.3,66.0,29.91,WNW,297,0.0,0.0,58,0.00,,,0.00,Wunderground v.1.12,2013-08-07 18:45:00,
2013-08-07 12:50:00,82.5,66.7,29.91,NW,304,3.0,3.0,59,0.00,,,0.00,Wunderground v.1.12,2013-08-07 18:50:00,
2013-08-07 12:55:00,82.6,66.8,29.91,NW,306,0.0,0.0,59,0.00,,,0.00,Wunderground v.1.12,2013-08-07 18:55:00,
2013-08-07 13:00:00,82.7,66.4,29.91,WNW,302,1.0,1.0,58,0.00,,,0.00,Wunderground v.1.12,2013-08-07 19:00:00,
2013-08-07 13:10:00,82.7,67.4,29.91,NW,306,0.0,0.0,60,0.00,,,0.00,Wunderground v.1.12,2013-08-07 19:10:00,
2013-08-07 13:15:00,82.7,67.4,29.91,NW,318,0.0,0.0,60,0.00,,,0.00,Wunderground v.1.12,2013-08-07 19:15:00,
2013-08-07 13:20:00,82.9,66.6,29.91,North,357,0.0,0.0,58,0.00,,,0.00,Wunderground v.1.12,2013-08-07 19:20:00,
2013-08-07 13:25:00,82.8,66.5,29.90,NW,310,1.0,1.0,58,0.00,,,0.00,Wunderground v.1.12,2013-08-07 19:25:00,
2013-08-07 13:30:00,82.9,66.1,29.90,WNW,299,1.0,1.0,57,0.00,,,0.00,Wunderground v.1.12,2013-08-07 19:30:00,
2013-08-07 13:35:00,82.7,66.9,29.90,NNW,341,0.0,0.0,59,0.00,,,0.00,Wunderground v.1.12,2013-08-07 19:35:00,
2013-08-07 13:40:00,82.8,67.0,29.90,WNW,298,0.0,0.0,59,0.00,,,0.00,Wunderground v.1.12,2013-08-07 19:40:00,
2013-08-07 13:50:00,82.5,67.2,29.90,NW,306,0.0,0.0,60,0.00,,,0.00,Wunderground v.1.12,2013-08-07 19:50:00,
2013-08-07 13:55:00,82.7,66.9,29.90,NW,312,0.0,0.0,59,0.00,,,0.00,Wunderground v.1.12,2013-08-07 19:55:00,
2013-08-07 14:00:00,82.9,67.1,29.90,NW,304,0.0,0.0,59,0.00,,,0.00,Wunderground v.1.12,2013-08-07 20:00:00,
2013-08-07 14:05:00,82.5,65.7,29.90,NW,307,0.0,0.0,57,0.00,,,0.00,Wunderground v.1.12,2013-08-07 20:05:00,
2013-08-07 14:10:00,81.5,65.8,29.90,NW,307,0.0,0.0,59,0.00,,,0.00,Wunderground v.1.12,2013-08-07 20:10:00,
2013-08-07 14:15:00,81.9,65.7,29.89,NW,314,0.0,0.0,58,0.00,,,0.00,Wunderground v.1.12,2013-08-07 20:15:00,
2013-08-07 14:25:00,82.3,65.5,29.89,NW,312,0.0,0.0,57,0.00,,,0.00,Wunderground v.1.12,2013-08-07 20:25:00,
2013-08-07 14:30:00,81.8,64.6,29.89,NW,318,0.0,0.0,56,0.00,,,0.00,Wunderground v.1.12,2013-08-07 20:30:00,
2013-08-07 14:35:00,80.6,64.5,29.89,NW,320,0.0,0.0,58,0.00,,,0.00,Wunderground v.1.12,2013-08-07 20:35:00,
2013-08-07 14:40:00,79.9,64.3,29.89,WNW,288,0.0,0.0,59,0.00,,,0.00,Wunderground v.1.12,2013-08-07 20:40:00,
2013-08-07 14:45:00,80.2,66.0,29.89,WNW,302,0.0,0.0,62,0.00,,,0.00,Wunderground v.1.12,2013-08-07 20:45:00,
2013-08-07 14:50:00,81.1,64.4,29.89,North,351,0.0,0.0,57,0.00,,,0.00,Wunderground v.1.12,2013-08-07 20:50:00,
2013-08-07 15:00:00,81.0,64.8,29.88,NNW,334,0.0,0.0,58,0.00,,,0.00,Wunderground v.1.12,2013-08-07 21:00:00,
2013-08-07 15:05:00,80.8,62.6,29.88,NW,320,0.0,0.0,54,0.00,,,0.00,Wunderground v.1.12,2013-08-07 21:05:00,
2013-08-07 15:10:00,80.4,62.8,29.88,NW,317,0.0,0.0,55,0.00,,,0.00,Wunderground v.1.12,2013-08-07 21:10:00,
2013-08-07 15:15:00,80.3,63.2,29.88,NW,321,0.0,0.0,56,0.00,,,0.00,Wunderground v.1.12,2013-08-07 21:15:00,
2013-08-07 15:20:00,80.2,63.6,29.88,NW,322,0.0,0.0,57,0.00,,,0.00,Wunderground v.1.12,2013-08-07 21:20:00,
2013-08-07 15:30:00,80.0,62.9,29.88,NW,322,0.0,0.0,56,0.00,,,0.00,Wunderground v.1.12,2013-08-07 21:30:00,
2013-08-07 15:35:00,79.9,62.8,29.88,NW,319,0.0,0.0,56,0.00,,,0.00,Wunderground v.1.12,2013-08-07 21:35:00,
2013-08-07 15:40:00,79.9,65.2,29.88,WNW,295,0.0,0.0,61,0.00,,,0.00,Wunderground v.1.12,2013-08-07 21:40:00,
2013-08-07 15:45:00,80.2,64.6,29.88,NW,306,0.0,0.0,59,0.00,,,0.00,Wunderground v.1.12,2013-08-07 21:45:00,
2013-08-07 15:50:00,80.1,63.0,29.87,NW,316,0.0,0.0,56,0.00,,,0.00,Wunderground v.1.12,2013-08-07 21:50:00,
2013-08-07 15:55:00,80.2,63.6,29.87,NW,321,0.0,0.0,57,0.00,,,0.00,Wunderground v.1.12,2013-08-07 21:55:00,
2013-08-07 16:05:00,79.6,62.0,29.87,NW,325,0.0,0.0,55,0.00,,,0.00,Wunderground v.1.12,2013-08-07 22:05:00,
2013-08-07 16:10:00,79.2,63.6,29.87,NW,320,0.0,0.0,59,0.00,,,0.00,Wunderground v.1.12,2013-08-07 22:10:00,
2013-08-07 16:15:00,78.8,63.3,29.87,North,0,0.0,0.0,59,0.00,,,0.00,Wunderground v.1.12,2013-08-07 22:15:00,
2013-08-07 16:20:00,78.6,64.0,29.87,North,0,0.0,0.0,61,0.00,,,0.00,Wunderground v.1.12,2013-08-07 22:20:00,
2013-08-07 16:25:00,78.8,63.3,29.87,North,0,0.0,0.0,59,0.00,,,0.00,Wunderground v.1.12,2013-08-07 22:25:00,
2013-08-07 16:30:00,78.9,62.4,29.86,North,0,0.0,0.0,57,0.00,,,0.00,Wunderground v.1.12,2013-08-07 22:30:00,
2013-08-07 16:35:00,79.2,63.1,29.86,NW,320,0.0,0.0,58,0.00,,,0.00,Wunderground v.1.12,2013-08-07 22:35:00,
2013-08-07 16:45:00,79.0,63.0,29.86,NW,324,0.0,0.0,58,0.00,,,0.00,Wunderground v.1.12,2013-08-07 22:45:00,
2013-08-07 16:50:00,79.1,63.1,29.86,North,0,0.0,0.0,58,0.00,,,0.00,Wunderground v.1.12,2013-08-07 22:50:00,
2013-08-07 16:55:00,79.2,63.1,29.86,NW,321,0.0,0.0,58,0.00,,,0.00,Wunderground v.1.12,2013-08-07 22:55:00,
2013-08-07 17:00:00,79.3,62.7,29.86,NW,317,0.0,0.0,57,0.00,,,0.00,Wunderground v.1.12,2013-08-07 23:00:00,
2013-08-07 17:05:00,79.4,62.3,29.85,NW,312,0.0,0.0,56,0.00,,,0.00,Wunderground v.1.12,2013-08-07 23:05:00,
2013-08-07 17:10:00,79.5,62.4,29.85,North,358,0.0,0.0,56,0.00,,,0.00,Wunderground v.1.12,2013-08-07 23:10:00,
2013-08-07 17:20:00,79.6,63.5,29.86,North,0,0.0,0.0,58,0.00,,,0.00,Wunderground v.1.12,2013-08-07 23:20:00,
2013-08-07 17:25:00,79.6,63.0,29.85,North,0,0.0,0.0,57,0.00,,,0.00,Wunderground v.1.12,2013-08-07 23:25:00,
2013-08-07 17:30:00,79.5,62.4,29.85,North,0,0.0,0.0,56,0.00,,,0.00,Wunderground v.1.12,2013-08-07 23:30:00,
2013-08-07 17:35:00,79.2,61.6,29.85,NNW,336,0.0,0.0,55,0.00,,,0.00,Wunderground v.1.12,2013-08-07 23:35:00,
2013-08-07 17:40:00,79.0,61.5,29.85,North,0,0.0,0.0,55,0.00,,,0.00,Wunderground v.1.12,2013-08-07 23:40:00,
2013-08-07 17:45:00,78.9,62.4,29.85,North,0,0.0,0.0,57,0.00,,,0.00,Wunderground v.1.12,2013-08-07 23:45:00,
2013-08-07 17:55:00,78.9,62.4,29.84,N/A,-32768,0.0,0.0,57,0.00,,,0.00,Wunderground v.1.12,2013-08-07 23:55:00,
2013-08-07 18:00:00,78.9,62.4,29.84,N/A,-32768,0.0,0.0,57,0.00,,,0.00,Wunderground v.1.12,2013-08-08 00:00:00,
2013-08-07 18:05:00,78.7,61.7,29.84,N/A,-32768,0.0,0.0,56,0.00,,,0.00,Wunderground v.1.12,2013-08-08 00:05:00,
2013-08-07 18:10:00,78.8,62.8,29.84,N/A,-32768,0.0,0.0,58,0.00,,,0.00,Wunderground v.1.12,2013-08-08 00:10:00,
2013-08-07 18:15:00,78.7,62.2,29.84,N/A,-32768,0.0,0.0,57,0.00,,,0.00,Wunderground v.1.12,2013-08-08 00:15:00,
2013-08-07 18:20:00,78.6,61.6,29.84,N/A,-32768,0.0,0.0,56,0.00,,,0.00,Wunderground v.1.12,2013-08-08 00:20:00,
2013-08-07 18:30:00,78.0,63.9,29.84,N/A,-32768,0.0,0.0,62,0.00,,,0.00,Wunderground v.1.12,2013-08-08 00:30:00,
2013-08-07 18:35:00,77.5,63.9,29.84,N/A,-32768,0.0,0.0,63,0.00,,,0.00,Wunderground v.1.12,2013-08-08 00:35:00,
2013-08-07 18:45:00,77.2,63.2,29.84,N/A,-32768,0.0,0.0,62,0.00,,,0.00,Wunderground v.1.12,2013-08-08 00:45:00,
2013-08-07 18:50:00,77.2,63.6,29.84,N/A,-32768,0.0,0.0,63,0.00,,,0.00,Wunderground v.1.12,2013-08-08 00:50:00,
2013-08-07 18:55:00,77.0,63.4,29.84,N/A,-32768,0.0,0.0,63,0.00,,,0.00,Wunderground v.1.12,2013-08-08 00:55:00,
2013-08-07 19:00:00,76.9,64.7,29.84,N/A,-32768,0.0,0.0,66,0.00,,,0.00,Wunderground v.1.12,2013-08-08 01:00:00,
2013-08-07 19:10:00,76.3,65.0,29.84,N/A,-32768,0.0,0.0,68,0.00,,,0.00,Wunderground v.1.12,2013-08-08 01:10:00,
2013-08-07 19:15:00,76.1,64.8,29.84,N/A,-32768,0.0,0.0,68,0.00,,,0.00,Wunderground v.1.12,2013-08-08 01:15:00,
2013-08-07 19:20:00,75.9,63.7,29.84,N/A,-32768,0.0,0.0,66,0.00,,,0.00,Wunderground v.1.12,2013-08-08 01:20:00,
2013-08-07 19:25:00,75.8,64.5,29.84,N/A,-32768,0.0,0.0,68,0.00,,,0.00,Wunderground v.1.12,2013-08-08 01:25:00,
2013-08-07 19:30:00,75.5,65.0,29.84,N/A,-32768,0.0,0.0,70,0.00,,,0.00,Wunderground v.1.12,2013-08-08 01:30:00,
2013-08-07 19:35:00,75.3,65.2,29.84,N/A,-32768,0.0,0.0,71,0.00,,,0.00,Wunderground v.1.12,2013-08-08 01:35:00,
2013-08-07 19:40:00,75.1,64.6,29.84,N/A,-32768,0.0,0.0,70,0.00,,,0.00,Wunderground v.1.12,2013-08-08 01:40:00,
2013-08-07 19:50:00,74.6,65.0,29.84,N/A,-32768,0.0,0.0,72,0.00,,,0.00,Wunderground v.1.12,2013-08-08 01:50:00,
2013-08-07 19:55:00,74.5,65.7,29.84,SW,226,0.0,0.0,74,0.00,,,0.00,Wunderground v.1.12,2013-08-08 01:55:00,
2013-08-07 20:00:00,74.3,66.2,29.85,SW,221,0.0,0.0,76,0.00,,,0.00,Wunderground v.1.12,2013-08-08 02:00:00,
2013-08-07 20:05:00,74.0,65.6,29.84,SW,225,0.0,0.0,75,0.00,,,0.00,Wunderground v.1.12,2013-08-08 02:05:00,
2013-08-07 20:10:00,73.7,64.5,29.84,WSW,240,0.0,0.0,73,0.00,,,0.00,Wunderground v.1.12,2013-08-08 02:10:00,
2013-08-07 20:15:00,73.5,65.1,29.85,SW,234,0.0,0.0,75,0.00,,,0.00,Wunderground v.1.12,2013-08-08 02:15:00,
2013-08-07 20:25:00,72.7,64.7,29.85,SW,231,0.0,0.0,76,0.00,,,0.00,Wunderground v.1.12,2013-08-08 02:25:00,
2013-08-07 20:35:00,71.8,63.8,29.85,SW,223,0.0,0.0,76,0.00,,,0.00,Wunderground v.1.12,2013-08-08 02:35:00,
2013-08-07 20:40:00,71.3,63.7,29.85,SW,222,0.0,0.0,77,0.00,,,0.00,Wunderground v.1.12,2013-08-08 02:40:00,
2013-08-07 20:45:00,70.9,63.7,29.85,SSW,213,0.0,0.0,78,0.00,,,0.00,Wunderground v.1.12,2013-08-08 02:45:00,
2013-08-07 20:50:00,70.2,63.0,29.85,SW,223,0.0,0.0,78,0.00,,,0.00,Wunderground v.1.12,2013-08-08 02:50:00,
2013-08-07 20:55:00,69.8,63.0,29.85,SW,216,0.0,0.0,79,0.00,,,0.00,Wunderground v.1.12,2013-08-08 02:55:00,
2013-08-07 21:00:00,69.3,62.5,29.85,SSW,208,0.0,0.0,79,0.00,,,0.00,Wunderground v.1.12,2013-08-08 03:00:00,
2013-08-07 21:10:00,68.8,62.0,29.86,SSW,208,0.0,0.0,79,0.00,,,0.00,Wunderground v.1.12,2013-08-08 03:10:00,
2013-08-07 21:15:00,68.5,61.7,29.86,SSW,213,0.0,0.0,79,0.00,,,0.00,Wunderground v.1.12,2013-08-08 03:15:00,
2013-08-07 21:20:00,68.1,61.7,29.86,SSW,212,0.0,0.0,80,0.00,,,0.00,Wunderground v.1.12,2013-08-08 03:20:00,
2013-08-07 21:25:00,67.8,61.4,29.86,SSW,210,0.0,0.0,80,0.00,,,0.00,Wunderground v.1.12,2013-08-08 03:25:00,
2013-08-07 21:35:00,67.0,61.0,29.87,SSW,208,0.0,0.0,81,0.00,,,0.00,Wunderground v.1.12,2013-08-08 03:35:00,
2013-08-07 21:40:00,66.7,60.7,29.87,SSW,206,0.0,0.0,81,0.00,,,0.00,Wunderground v.1.12,2013-08-08 03:40:00,
2013-08-07 21:45:00,66.3,60.3,29.87,SSW,208,0.0,0.0,81,0.00,,,0.00,Wunderground v.1.12,2013-08-08 03:45:00,
2013-08-07 21:50:00,66.0,60.0,29.87,SSW,203,0.0,0.0,81,0.00,,,0.00,Wunderground v.1.12,2013-08-08 03:50:00,
2013-08-07 21:55:00,65.7,60.1,29.87,SSW,204,0.0,0.0,82,0.00,,,0.00,Wunderground v.1.12,2013-08-08 03:55:00,
2013-08-07 22:00:00,65.5,59.9,29.87,SSW,202,0.0,0.0,82,0.00,,,0.00,Wunderground v.1.12,2013-08-08 04:00:00,
2013-08-07 22:05:00,65.2,59.2,29.88,SSW,205,0.0,0.0,81,0.00,,,0.00,Wunderground v.1.12,2013-08-08 04:05:00,
2013-08-07 22:10:00,64.9,59.3,29.88,SSW,201,0.0,0.0,82,0.00,,,0.00,Wunderground v.1.12,2013-08-08 04:10:00,
2013-08-07 22:15:00,64.7,59.1,29.88,SW,219,0.0,0.0,82,0.00,,,0.00,Wunderground v.1.12,2013-08-08 04:15:00,
2013-08-07 22:20:00,64.3,58.7,29.88,SSW,194,0.0,0.0,82,0.00,,,0.00,Wunderground v.1.12,2013-08-08 04:20:00,
2013-08-07 22:25:00,64.1,58.8,29.88,SSW,205,0.0,0.0,83,0.00,,,0.00,Wunderground v.1.12,2013-08-08 04:25:00,
2013-08-07 22:30:00,63.8,58.5,29.88,SSW,197,0.0,0.0,83,0.00,,,0.00,Wunderground v.1.12,2013-08-08 04:30:00,
2013-08-07 22:35:00,63.5,58.2,29.88,SSW,202,0.0,0.0,83,0.00,,,0.00,Wunderground v.1.12,2013-08-08 04:35:00,
2013-08-07 22:40:00,63.1,58.2,29.88,SSW,199,0.0,0.0,84,0.00,,,0.00,Wunderground v.1.12,2013-08-08 04:40:00,
2013-08-07 22:45:00,62.8,58.2,29.88,SSW,209,0.0,0.0,85,0.00,,,0.00,Wunderground v.1.12,2013-08-08 04:45:00,
2013-08-07 22:50:00,62.5,57.9,29.88,SSW,206,0.0,0.0,85,0.00,,,0.00,Wunderground v.1.12,2013-08-08 04:50:00,
2013-08-07 22:55:00,62.4,57.5,29.88,SSW,210,0.0,0.0,84,0.00,,,0.00,Wunderground v.1.12,2013-08-08 04:55:00,
2013-08-07 23:00:00,62.2,57.6,29.88,SSW,212,0.0,0.0,85,0.00,,,0.00,Wunderground v.1.12,2013-08-08 05:00:00,
2013-08-07 23:05:00,62.0,57.4,29.88,SSW,206,0.0,0.0,85,0.00,,,0.00,Wunderground v.1.12,2013-08-08 05:05:00,
2013-08-07 23:10:00,61.8,57.2,29.88,SSW,213,0.0,0.0,85,0.00,,,0.00,Wunderground v.1.12,2013-08-08 05:10:00,
2013-08-07 23:20:00,61.2,56.7,29.89,SSW,206,0.0,0.0,85,0.00,,,0.00,Wunderground v.1.12,2013-08-08 05:20:00,
2013-08-07 23:25:00,60.9,56.4,29.89,SSW,206,0.0,0.0,85,0.00,,,0.00,Wunderground v.1.12,2013-08-08 05:25:00,
2013-08-07 23:30:00,60.6,56.4,29.89,SSW,205,0.0,0.0,86,0.00,,,0.00,Wunderground v.1.12,2013-08-08 05:30:00,
2013-08-07 23:35:00,60.2,56.0,29.89,SSW,208,0.0,0.0,86,0.00,,,0.00,Wunderground v.1.12,2013-08-08 05:35:00,
2013-08-07 23:40:00,59.9,55.7,29.89,SSW,207,0.0,0.0,86,0.00,,,0.00,Wunderground v.1.12,2013-08-08 05:40:00,
2013-08-07 23:50:00,59.3,55.1,29.89,SSW,203,0.0,0.0,86,0.00,,,0.00,Wunderground v.1.12,2013-08-08 05:50:00,
2013-08-07 23:55:00,58.9,54.7,29.89,SSW,208,0.0,0.0,86,0.00,,,0.00,Wunderground v.1.12,2013-08-08 05:55:00,